map of FUT home
FUT - Airport
Location
City:  Futuna Island, Wallis and Futuna Islands
Near (Alt.):Maopoopo Īle Futuna
Name:Pointe Vele
ICAO:NLWF
IATA:FUT

Details
Type:Airport (Aerodrome, Airfield)
Latitude:14°18'41"S (-14.311388)
Longitude:178°03'58"W (-178.066110)
Elevation:20 ft (6 m)
Variation:11.76°E (WMM2015 magnetic declination)
0.04° annual change
Runways:unknown number
Longest:3051 ft (930 m)

Time
Time Zone:UTC+12
Local Time:

Weather
TAF:NLWF 202300Z 2100/2124 12015KT 9999 SCT030 PROB40
TEMPO 2112/2121 SHRA

Related Locations
Nearby:
Farthest:DRRU: 12439 mi / 20019 km
Ouallam [Ouallam Airport], NE

Find:

   beyond  
but within

Other Information
Maps:
NOTAMs:
Sources:

  
  • flag of Wallis and Futuna Islands
  

Sectional Chart

Flight Planning
at skyvector.com

Satellite Image

Google Maps Satellite view

 

Copyright © 2004-2018 Karl L. Swartz. All rights reserved.
The Great Circle Mapper name and logo are trademarks of the Great Circle Mapper.
All other trademarks mentioned herein belong to their respective owners.
Please see credits for attibutions and further copyright information.

  Follow gcmap on Facebook Follow gcmap on Twitter Follow gcmap on Google+ GCmap on LinkedIn

hCard Microformat

Geo Microformat